Year,Month,Day,Hour,Minute,Value (Times are PST for temperature in C)
2008,07,25,00,00,15.50
2008,07,25,00,01,15.50
2008,07,25,00,02,15.60
2008,07,25,00,03,15.60
2008,07,25,00,04,15.60
2008,07,25,00,05,15.70
2008,07,25,00,06,15.70
2008,07,25,00,07,15.70
2008,07,25,00,08,15.70
2008,07,25,00,09,15.80
2008,07,25,00,10,15.80
2008,07,25,00,11,15.80
2008,07,25,00,12,15.80
2008,07,25,00,13,15.80
2008,07,25,00,14,15.80
2008,07,25,00,15,15.80
2008,07,25,00,16,15.80
2008,07,25,00,17,15.70
2008,07,25,00,18,15.70
2008,07,25,00,19,15.70
2008,07,25,00,20,15.60
2008,07,25,00,21,15.60
2008,07,25,00,22,15.60
2008,07,25,00,23,15.50
2008,07,25,00,24,15.50
2008,07,25,00,25,15.50
2008,07,25,00,26,15.50
2008,07,25,00,27,15.40
2008,07,25,00,28,15.40
2008,07,25,00,29,15.40
2008,07,25,00,30,15.40
2008,07,25,00,31,15.40
2008,07,25,00,32,15.40
2008,07,25,00,33,15.40
2008,07,25,00,34,15.40
2008,07,25,00,35,15.40
2008,07,25,00,36,15.40
2008,07,25,00,37,15.40
2008,07,25,00,38,15.40
2008,07,25,00,39,15.40
2008,07,25,00,40,15.40
2008,07,25,00,41,15.40
2008,07,25,00,42,15.40
2008,07,25,00,43,15.50
2008,07,25,00,44,15.50
2008,07,25,00,45,15.50
2008,07,25,00,46,15.50
2008,07,25,00,47,15.50
2008,07,25,00,48,15.50
2008,07,25,00,49,15.50
2008,07,25,00,50,15.60
2008,07,25,00,51,15.60
2008,07,25,00,52,15.60
2008,07,25,00,53,15.60
2008,07,25,00,54,15.60
2008,07,25,00,55,15.60
2008,07,25,00,56,15.60
2008,07,25,00,57,15.60
2008,07,25,00,58,15.60
2008,07,25,00,59,15.60
2008,07,25,01,00,15.60
2008,07,25,01,01,15.60
2008,07,25,01,02,15.60
2008,07,25,01,03,15.60
2008,07,25,01,04,15.60
2008,07,25,01,05,15.60
2008,07,25,01,06,15.60
2008,07,25,01,07,15.70
2008,07,25,01,08,15.70
2008,07,25,01,09,15.70
2008,07,25,01,10,15.70
2008,07,25,01,11,15.70
2008,07,25,01,12,15.70
2008,07,25,01,13,15.70
2008,07,25,01,14,15.70
2008,07,25,01,15,15.70
2008,07,25,01,16,15.70
2008,07,25,01,17,15.70
2008,07,25,01,18,15.70
2008,07,25,01,19,15.70
2008,07,25,01,20,15.70
2008,07,25,01,21,15.70
2008,07,25,01,22,15.70
2008,07,25,01,23,15.80
2008,07,25,01,24,15.80
2008,07,25,01,25,15.80
2008,07,25,01,26,15.80
2008,07,25,01,27,15.80
2008,07,25,01,28,15.80
2008,07,25,01,29,15.90
2008,07,25,01,30,15.90
2008,07,25,01,31,15.90
2008,07,25,01,32,15.90
2008,07,25,01,33,15.90
2008,07,25,01,34,15.90
2008,07,25,01,35,15.80
2008,07,25,01,36,15.80
2008,07,25,01,37,15.80
2008,07,25,01,38,15.80
2008,07,25,01,39,15.80
2008,07,25,01,40,15.80
2008,07,25,01,41,15.80
2008,07,25,01,42,15.80
2008,07,25,01,43,15.80
2008,07,25,01,44,15.80
2008,07,25,01,45,15.80
2008,07,25,01,46,15.80
2008,07,25,01,47,15.70
2008,07,25,01,48,15.70
2008,07,25,01,49,15.70
2008,07,25,01,50,15.60
2008,07,25,01,51,15.60
2008,07,25,01,52,15.60
2008,07,25,01,53,15.60
2008,07,25,01,54,15.60
2008,07,25,01,55,15.50
2008,07,25,01,56,15.60
2008,07,25,01,57,15.60
2008,07,25,01,58,15.60
2008,07,25,01,59,15.60
2008,07,25,02,00,15.60
2008,07,25,02,01,15.60
2008,07,25,02,02,15.60
2008,07,25,02,03,15.60
2008,07,25,02,04,15.50
2008,07,25,02,05,15.60
2008,07,25,02,06,15.60
2008,07,25,02,07,15.60
2008,07,25,02,08,15.60
2008,07,25,02,09,15.60
2008,07,25,02,10,15.60
2008,07,25,02,11,15.60
2008,07,25,02,12,15.50
2008,07,25,02,13,15.50
2008,07,25,02,14,15.50
2008,07,25,02,15,15.50
2008,07,25,02,16,15.50
2008,07,25,02,17,15.40
2008,07,25,02,18,15.40
2008,07,25,02,19,15.40
2008,07,25,02,20,15.40
2008,07,25,02,21,15.30
2008,07,25,02,22,15.30
2008,07,25,02,23,15.30
2008,07,25,02,24,15.30
2008,07,25,02,25,15.30
2008,07,25,02,26,15.30
2008,07,25,02,27,15.30
2008,07,25,02,28,15.30
2008,07,25,02,29,15.20
2008,07,25,02,30,15.20
2008,07,25,02,31,15.20
2008,07,25,02,32,15.10
2008,07,25,02,33,15.10
2008,07,25,02,34,15.10
2008,07,25,02,35,15.10
2008,07,25,02,36,15.00
2008,07,25,02,37,15.00
2008,07,25,02,38,15.00
2008,07,25,02,39,15.00
2008,07,25,02,40,15.00
2008,07,25,02,41,14.90
2008,07,25,02,42,14.90
2008,07,25,02,43,14.90
2008,07,25,02,44,14.90
2008,07,25,02,45,14.90
2008,07,25,02,46,14.90
2008,07,25,02,47,14.90
2008,07,25,02,48,14.90
2008,07,25,02,49,14.90
2008,07,25,02,50,14.90
2008,07,25,02,51,14.90
2008,07,25,02,52,14.90
2008,07,25,02,53,14.80
2008,07,25,02,54,14.80
2008,07,25,02,55,14.80
2008,07,25,02,56,14.80
2008,07,25,02,57,14.80
2008,07,25,02,58,14.70
2008,07,25,02,59,14.70
2008,07,25,03,00,14.60
2008,07,25,03,01,14.60
2008,07,25,03,02,14.50
2008,07,25,03,03,14.50
2008,07,25,03,04,14.40
2008,07,25,03,05,14.40
2008,07,25,03,06,14.30
2008,07,25,03,07,14.30
2008,07,25,03,08,14.20
2008,07,25,03,09,14.20
2008,07,25,03,10,14.20
2008,07,25,03,11,14.10
2008,07,25,03,12,14.10
2008,07,25,03,13,14.00
2008,07,25,03,14,14.00
2008,07,25,03,15,13.90
2008,07,25,03,16,13.90
2008,07,25,03,17,13.80
2008,07,25,03,18,13.80
2008,07,25,03,19,13.70
2008,07,25,03,20,13.70
2008,07,25,03,21,13.70
2008,07,25,03,22,13.70
2008,07,25,03,23,13.70
2008,07,25,03,24,13.60
2008,07,25,03,25,13.60
2008,07,25,03,26,13.50
2008,07,25,03,27,13.50
2008,07,25,03,28,13.50
2008,07,25,03,29,13.40
2008,07,25,03,30,13.40
2008,07,25,03,31,13.40
2008,07,25,03,32,13.30
2008,07,25,03,33,13.30
2008,07,25,03,34,13.30
2008,07,25,03,35,13.20
2008,07,25,03,36,13.20
2008,07,25,03,37,13.20
2008,07,25,03,38,13.10
2008,07,25,03,39,13.10
2008,07,25,03,40,13.10
2008,07,25,03,41,13.10
2008,07,25,03,42,13.10
2008,07,25,03,43,13.10
2008,07,25,03,44,13.10
2008,07,25,03,45,13.00
2008,07,25,03,46,13.00
2008,07,25,03,47,13.00
2008,07,25,03,48,13.00
2008,07,25,03,49,13.00
2008,07,25,03,50,12.90
2008,07,25,03,51,12.90
2008,07,25,03,52,12.90
2008,07,25,03,53,12.90
2008,07,25,03,54,12.90
2008,07,25,03,55,12.80
2008,07,25,03,56,12.80
2008,07,25,03,57,12.80
2008,07,25,03,58,12.80
2008,07,25,03,59,12.80
2008,07,25,04,00,12.80
2008,07,25,04,01,12.80
2008,07,25,04,02,12.80
2008,07,25,04,03,12.80
2008,07,25,04,04,12.80
2008,07,25,04,05,12.80
2008,07,25,04,06,12.80
2008,07,25,04,07,12.80
2008,07,25,04,08,12.80
2008,07,25,04,09,12.80
2008,07,25,04,10,12.80
2008,07,25,04,11,12.80
2008,07,25,04,12,12.80
2008,07,25,04,13,12.80
2008,07,25,04,14,12.80
2008,07,25,04,15,12.80
2008,07,25,04,16,12.80
2008,07,25,04,17,12.80
2008,07,25,04,18,12.80
2008,07,25,04,19,12.80
2008,07,25,04,20,12.80
2008,07,25,04,21,12.80
2008,07,25,04,22,12.80
2008,07,25,04,23,12.70
2008,07,25,04,24,12.70
2008,07,25,04,25,12.70
2008,07,25,04,26,12.70
2008,07,25,04,27,12.70
2008,07,25,04,28,12.70
2008,07,25,04,29,12.70
2008,07,25,04,30,12.70
2008,07,25,04,31,12.70
2008,07,25,04,32,12.80
2008,07,25,04,33,12.80
2008,07,25,04,34,12.80
2008,07,25,04,35,12.80
2008,07,25,04,36,12.80
2008,07,25,04,37,12.80
2008,07,25,04,38,12.80
2008,07,25,04,39,12.70
2008,07,25,04,40,12.70
2008,07,25,04,41,12.60
2008,07,25,04,42,12.60
2008,07,25,04,43,12.50
2008,07,25,04,44,12.50
2008,07,25,04,45,12.50
2008,07,25,04,46,12.50
2008,07,25,04,47,12.50
2008,07,25,04,48,12.60
2008,07,25,04,49,12.60
2008,07,25,04,50,12.70
2008,07,25,04,51,12.70
2008,07,25,04,52,12.70
2008,07,25,04,53,12.70
2008,07,25,04,54,12.70
2008,07,25,04,55,12.70
2008,07,25,04,56,12.70
2008,07,25,04,57,12.70
2008,07,25,04,58,12.80
2008,07,25,04,59,12.80
2008,07,25,05,00,12.80
2008,07,25,05,01,12.70
2008,07,25,05,02,12.70
2008,07,25,05,03,12.70
2008,07,25,05,04,12.70
2008,07,25,05,05,12.70
2008,07,25,05,06,12.60
2008,07,25,05,07,12.60
2008,07,25,05,08,12.60
2008,07,25,05,09,12.60
2008,07,25,05,10,12.60
2008,07,25,05,11,12.60
2008,07,25,05,12,12.60
2008,07,25,05,13,12.50
2008,07,25,05,14,12.50
2008,07,25,05,15,12.50
2008,07,25,05,16,12.40
2008,07,25,05,17,12.40
2008,07,25,05,18,12.30
2008,07,25,05,19,12.30
2008,07,25,05,20,12.30
2008,07,25,05,21,12.30
2008,07,25,05,22,12.30
2008,07,25,05,23,12.30
2008,07,25,05,24,12.30
2008,07,25,05,25,12.20
2008,07,25,05,26,12.20
2008,07,25,05,27,12.20
2008,07,25,05,28,12.20
2008,07,25,05,29,12.20
2008,07,25,05,30,12.20
2008,07,25,05,31,12.20
2008,07,25,05,32,12.20
2008,07,25,05,33,12.20
2008,07,25,05,34,12.20
2008,07,25,05,35,12.20
2008,07,25,05,36,12.20
2008,07,25,05,37,12.10
2008,07,25,05,38,12.10
2008,07,25,05,39,12.00
2008,07,25,05,40,12.00
2008,07,25,05,41,11.90
2008,07,25,05,42,11.90
2008,07,25,05,43,11.80
2008,07,25,05,44,11.80
2008,07,25,05,45,11.80
2008,07,25,05,46,11.80
2008,07,25,05,47,11.80
2008,07,25,05,48,11.80
2008,07,25,05,49,11.70
2008,07,25,05,50,11.80
2008,07,25,05,51,11.80
2008,07,25,05,52,11.80
2008,07,25,05,53,11.80
2008,07,25,05,54,11.80
2008,07,25,05,55,11.90
2008,07,25,05,56,11.90
2008,07,25,05,57,11.90
2008,07,25,05,58,11.90
2008,07,25,05,59,11.90
2008,07,25,06,00,11.90
2008,07,25,06,01,12.00
2008,07,25,06,02,12.00
2008,07,25,06,03,12.00
2008,07,25,06,04,12.00
2008,07,25,06,05,11.90
2008,07,25,06,06,11.90
2008,07,25,06,07,11.90
2008,07,25,06,08,11.80
2008,07,25,06,09,11.80
2008,07,25,06,10,11.80
2008,07,25,06,11,11.80
2008,07,25,06,12,11.80
2008,07,25,06,13,11.70
2008,07,25,06,14,11.70
2008,07,25,06,15,11.60
2008,07,25,06,16,11.60
2008,07,25,06,17,11.60
2008,07,25,06,18,11.60
2008,07,25,06,19,11.60
2008,07,25,06,20,11.60
2008,07,25,06,21,11.60
2008,07,25,06,22,11.60
2008,07,25,06,23,11.60
2008,07,25,06,24,11.60
2008,07,25,06,25,11.60
2008,07,25,06,26,11.60
2008,07,25,06,27,11.60
2008,07,25,06,28,11.60
2008,07,25,06,29,11.60
2008,07,25,06,30,11.60
2008,07,25,06,31,11.60
2008,07,25,06,32,11.60
2008,07,25,06,33,11.60
2008,07,25,06,34,11.60
2008,07,25,06,35,11.60
2008,07,25,06,36,11.60
2008,07,25,06,37,11.60
2008,07,25,06,38,11.60
2008,07,25,06,39,11.60
2008,07,25,06,40,11.60
2008,07,25,06,41,11.60
2008,07,25,06,42,11.60
2008,07,25,06,43,11.60
2008,07,25,06,44,11.60
2008,07,25,06,45,11.60
2008,07,25,06,46,11.60
2008,07,25,06,47,11.60
2008,07,25,06,48,11.60
2008,07,25,06,49,11.60
2008,07,25,06,50,11.60
2008,07,25,06,51,11.60
2008,07,25,06,52,11.60
2008,07,25,06,53,11.60
2008,07,25,06,54,11.70
2008,07,25,06,55,11.80
2008,07,25,06,56,11.80
2008,07,25,06,57,11.90
2008,07,25,06,58,12.00
2008,07,25,06,59,12.10
2008,07,25,07,00,12.10
2008,07,25,07,01,12.10
2008,07,25,07,02,12.10
2008,07,25,07,03,12.10
2008,07,25,07,04,12.10
2008,07,25,07,05,12.20
2008,07,25,07,06,12.20
2008,07,25,07,07,12.30
2008,07,25,07,08,12.30
2008,07,25,07,09,12.30
2008,07,25,07,10,12.30
2008,07,25,07,11,12.30
2008,07,25,07,12,12.20
2008,07,25,07,13,12.20
2008,07,25,07,14,12.20
2008,07,25,07,15,12.20
2008,07,25,07,16,12.30
2008,07,25,07,17,12.30
2008,07,25,07,18,12.40
2008,07,25,07,19,12.50
2008,07,25,07,20,12.60
2008,07,25,07,21,12.70
2008,07,25,07,22,12.70
2008,07,25,07,23,12.80
2008,07,25,07,24,12.90
2008,07,25,07,25,12.90
2008,07,25,07,26,13.00
2008,07,25,07,27,13.00
2008,07,25,07,28,13.10
2008,07,25,07,29,13.20
2008,07,25,07,30,13.20
2008,07,25,07,31,13.30
2008,07,25,07,32,13.30
2008,07,25,07,33,13.30
2008,07,25,07,34,13.30
2008,07,25,07,35,13.40
2008,07,25,07,36,13.50
2008,07,25,07,37,13.60
2008,07,25,07,38,13.60
2008,07,25,07,39,13.70
2008,07,25,07,40,13.70
2008,07,25,07,41,13.70
2008,07,25,07,42,13.70
2008,07,25,07,43,13.70
2008,07,25,07,44,13.80
2008,07,25,07,45,13.80
2008,07,25,07,46,13.90
2008,07,25,07,47,13.90
2008,07,25,07,48,14.00
2008,07,25,07,49,14.00
2008,07,25,07,50,14.10
2008,07,25,07,51,14.20
2008,07,25,07,52,14.20
2008,07,25,07,53,14.30
2008,07,25,07,54,14.30
2008,07,25,07,55,14.40
2008,07,25,07,56,14.50
2008,07,25,07,57,14.60
2008,07,25,07,58,14.60
2008,07,25,07,59,14.70
2008,07,25,08,00,14.70
2008,07,25,08,01,14.80
2008,07,25,08,02,14.80
2008,07,25,08,03,14.80
2008,07,25,08,04,14.90
2008,07,25,08,05,14.90
2008,07,25,08,06,15.00
2008,07,25,08,07,15.10
2008,07,25,08,08,15.10
2008,07,25,08,09,15.20
2008,07,25,08,10,15.30
2008,07,25,08,11,15.30
2008,07,25,08,12,15.30
2008,07,25,08,13,15.30
2008,07,25,08,14,15.40
2008,07,25,08,15,15.50
2008,07,25,08,16,15.50
2008,07,25,08,17,15.50
2008,07,25,08,18,15.60
2008,07,25,08,19,15.60
2008,07,25,08,20,15.60
2008,07,25,08,21,15.60
2008,07,25,08,22,15.60
2008,07,25,08,23,15.60
2008,07,25,08,24,15.60
2008,07,25,08,25,15.70
2008,07,25,08,26,15.70
2008,07,25,08,27,15.80
2008,07,25,08,28,15.80
2008,07,25,08,29,15.80
2008,07,25,08,30,15.90
2008,07,25,08,31,15.90
2008,07,25,08,32,15.90
2008,07,25,08,33,15.90
2008,07,25,08,34,16.00
2008,07,25,08,35,16.10
2008,07,25,08,36,16.10
2008,07,25,08,37,16.10
2008,07,25,08,38,16.00
2008,07,25,08,39,15.90
2008,07,25,08,40,15.80
2008,07,25,08,41,15.80
2008,07,25,08,42,15.80
2008,07,25,08,43,15.70
2008,07,25,08,44,15.60
2008,07,25,08,45,15.50
2008,07,25,08,46,15.40
2008,07,25,08,47,15.30
2008,07,25,08,48,15.30
2008,07,25,08,49,15.30
2008,07,25,08,50,15.30
2008,07,25,08,51,15.30
2008,07,25,08,52,15.30
2008,07,25,08,53,15.40
2008,07,25,08,54,15.40
2008,07,25,08,55,15.40
2008,07,25,08,56,15.30
2008,07,25,08,57,15.30
2008,07,25,08,58,15.30
2008,07,25,08,59,15.30
2008,07,25,09,00,15.30
2008,07,25,09,01,15.30
2008,07,25,09,02,15.30
2008,07,25,09,03,15.40
2008,07,25,09,04,15.40
2008,07,25,09,05,15.40
2008,07,25,09,06,15.50
2008,07,25,09,07,15.50
2008,07,25,09,08,15.50
2008,07,25,09,09,15.50
2008,07,25,09,10,15.50
2008,07,25,09,11,15.50
2008,07,25,09,12,15.50
2008,07,25,09,13,15.50
2008,07,25,09,14,15.40
2008,07,25,09,15,15.30
2008,07,25,09,16,15.20
2008,07,25,09,17,15.20
2008,07,25,09,18,15.20
2008,07,25,09,19,15.10
2008,07,25,09,20,15.10
2008,07,25,09,21,15.10
2008,07,25,09,22,15.20
2008,07,25,09,23,15.30
2008,07,25,09,24,15.30
2008,07,25,09,25,15.30
2008,07,25,09,26,15.40
2008,07,25,09,27,15.50
2008,07,25,09,28,15.60
2008,07,25,09,29,15.70
2008,07,25,09,30,15.70
2008,07,25,09,31,15.80
2008,07,25,09,32,15.80
2008,07,25,09,33,15.90
2008,07,25,09,34,16.10
2008,07,25,09,35,16.10
2008,07,25,09,36,16.10
2008,07,25,09,37,16.20
2008,07,25,09,38,16.30
2008,07,25,09,39,16.30
2008,07,25,09,40,16.40
2008,07,25,09,41,16.40
2008,07,25,09,42,16.30
2008,07,25,09,43,16.20
2008,07,25,09,44,16.10
2008,07,25,09,45,16.00
2008,07,25,09,46,15.80
2008,07,25,09,47,15.70
2008,07,25,09,48,15.60
2008,07,25,09,49,15.60
2008,07,25,09,50,15.60
2008,07,25,09,51,15.50
2008,07,25,09,52,15.40
2008,07,25,09,53,15.30
2008,07,25,09,54,15.30
2008,07,25,09,55,15.30
2008,07,25,09,56,15.30
2008,07,25,09,57,15.20
2008,07,25,09,58,15.20
2008,07,25,09,59,15.30
2008,07,25,10,00,15.30
2008,07,25,10,01,15.30
2008,07,25,10,02,15.30
2008,07,25,10,03,15.30
2008,07,25,10,04,15.40
2008,07,25,10,05,15.40
2008,07,25,10,06,15.40
2008,07,25,10,07,15.40
2008,07,25,10,08,15.40
2008,07,25,10,09,15.50
2008,07,25,10,10,15.50
2008,07,25,10,11,15.40
2008,07,25,10,12,15.20
2008,07,25,10,13,15.20
2008,07,25,10,14,15.10
2008,07,25,10,15,15.00
2008,07,25,10,16,15.00
2008,07,25,10,17,15.00
2008,07,25,10,18,15.00
2008,07,25,10,19,15.00
2008,07,25,10,20,15.00
2008,07,25,10,21,14.90
2008,07,25,10,22,14.80
2008,07,25,10,23,14.60
2008,07,25,10,24,14.60
2008,07,25,10,25,14.60
2008,07,25,10,26,14.60
2008,07,25,10,27,14.60
2008,07,25,10,28,14.60
2008,07,25,10,29,14.50
2008,07,25,10,30,14.40
2008,07,25,10,31,14.30
2008,07,25,10,32,14.40
2008,07,25,10,33,14.50
2008,07,25,10,34,14.50
2008,07,25,10,35,14.60
2008,07,25,10,36,14.50
2008,07,25,10,37,14.50
2008,07,25,10,38,14.50
2008,07,25,10,39,14.50
2008,07,25,10,40,14.60
2008,07,25,10,41,14.60
2008,07,25,10,42,14.60
2008,07,25,10,43,14.70
2008,07,25,10,44,14.70
2008,07,25,10,45,14.70
2008,07,25,10,46,14.80
2008,07,25,10,47,14.80
2008,07,25,10,48,14.90
2008,07,25,10,49,15.00
2008,07,25,10,50,15.10
2008,07,25,10,51,15.00
2008,07,25,10,52,14.90
2008,07,25,10,53,14.80
2008,07,25,10,54,14.80
2008,07,25,10,55,14.80
2008,07,25,10,56,14.80
2008,07,25,10,57,14.80
2008,07,25,10,58,14.80
2008,07,25,10,59,14.80
2008,07,25,11,00,14.70
2008,07,25,11,01,14.70
2008,07,25,11,02,14.70
2008,07,25,11,03,14.60
2008,07,25,11,04,14.60
2008,07,25,11,05,14.60
2008,07,25,11,06,14.50
2008,07,25,11,07,14.50
2008,07,25,11,08,14.40
2008,07,25,11,09,14.50
2008,07,25,11,10,14.50
2008,07,25,11,11,14.50
2008,07,25,11,12,14.50
2008,07,25,11,13,14.60
2008,07,25,11,14,14.60
2008,07,25,11,15,14.60
2008,07,25,11,16,14.60
2008,07,25,11,17,14.70
2008,07,25,11,18,14.70
2008,07,25,11,19,14.70
2008,07,25,11,20,14.80
2008,07,25,11,21,14.70
2008,07,25,11,22,14.80
2008,07,25,11,23,14.80
2008,07,25,11,24,14.80
2008,07,25,11,25,14.80
2008,07,25,11,26,14.80
2008,07,25,11,27,14.90
2008,07,25,11,28,15.00
2008,07,25,11,29,15.00
2008,07,25,11,30,15.10
2008,07,25,11,31,15.20
2008,07,25,11,32,15.20
2008,07,25,11,33,15.20
2008,07,25,11,34,15.20
2008,07,25,11,35,15.10
2008,07,25,11,36,15.10
2008,07,25,11,37,15.00
2008,07,25,11,38,15.00
2008,07,25,11,39,14.90
2008,07,25,11,40,14.90
2008,07,25,11,41,14.80
2008,07,25,11,42,14.90
2008,07,25,11,43,15.00
2008,07,25,11,44,15.10
2008,07,25,11,45,15.20
2008,07,25,11,46,15.30
2008,07,25,11,47,15.30
2008,07,25,11,48,15.40
2008,07,25,11,49,15.50
2008,07,25,11,50,15.50
2008,07,25,11,51,15.60
2008,07,25,11,52,15.60
2008,07,25,11,53,15.70
2008,07,25,11,54,15.80
2008,07,25,11,55,15.80
2008,07,25,11,56,15.80
2008,07,25,11,57,15.80
2008,07,25,11,58,15.70
2008,07,25,11,59,15.70
2008,07,25,12,00,15.60
2008,07,25,12,01,15.60
2008,07,25,12,02,15.50
2008,07,25,12,03,15.50
2008,07,25,12,04,15.50
2008,07,25,12,05,15.60
2008,07,25,12,06,15.60
2008,07,25,12,07,15.50
2008,07,25,12,08,15.50
2008,07,25,12,09,15.40
2008,07,25,12,10,15.30
2008,07,25,12,11,15.30
2008,07,25,12,12,15.30
2008,07,25,12,13,15.30
2008,07,25,12,14,15.50
2008,07,25,12,15,15.60
2008,07,25,12,16,15.70
2008,07,25,12,17,15.80
2008,07,25,12,18,15.80
2008,07,25,12,19,15.70
2008,07,25,12,20,15.70
2008,07,25,12,21,15.70
2008,07,25,12,22,15.60
2008,07,25,12,23,15.60
2008,07,25,12,24,15.60
2008,07,25,12,25,15.70
2008,07,25,12,26,15.60
2008,07,25,12,27,15.70
2008,07,25,12,28,15.70
2008,07,25,12,29,15.70
2008,07,25,12,30,15.80
2008,07,25,12,31,15.80
2008,07,25,12,32,16.00
2008,07,25,12,33,16.10
2008,07,25,12,34,16.10
2008,07,25,12,35,16.20
2008,07,25,12,36,16.30
2008,07,25,12,37,16.40
2008,07,25,12,38,16.50
2008,07,25,12,39,16.60
2008,07,25,12,40,16.80
2008,07,25,12,41,16.90
2008,07,25,12,42,17.00
2008,07,25,12,43,17.10
2008,07,25,12,44,17.20
2008,07,25,12,45,17.30
2008,07,25,12,46,17.20
2008,07,25,12,47,17.30
2008,07,25,12,48,17.30
2008,07,25,12,49,17.40
2008,07,25,12,50,17.40
2008,07,25,12,51,17.50
2008,07,25,12,52,17.60
2008,07,25,12,53,17.70
2008,07,25,12,54,17.70
2008,07,25,12,55,17.80
2008,07,25,12,56,17.80
2008,07,25,12,57,17.90
2008,07,25,12,58,17.90
2008,07,25,12,59,17.90
2008,07,25,13,00,17.90
2008,07,25,13,01,17.90
2008,07,25,13,02,17.90
2008,07,25,13,03,18.00
2008,07,25,13,04,18.10
2008,07,25,13,05,18.20
2008,07,25,13,06,18.30
2008,07,25,13,07,18.40
2008,07,25,13,08,18.40
2008,07,25,13,09,18.40
2008,07,25,13,10,18.40
2008,07,25,13,11,18.40
2008,07,25,13,12,18.40
2008,07,25,13,13,18.40
2008,07,25,13,14,18.30
2008,07,25,13,15,18.20
2008,07,25,13,16,18.20
2008,07,25,13,17,18.20
2008,07,25,13,18,18.20
2008,07,25,13,19,18.30
2008,07,25,13,20,18.40
2008,07,25,13,21,18.60
2008,07,25,13,22,18.60
2008,07,25,13,23,18.70
2008,07,25,13,24,18.70
2008,07,25,13,25,18.50
2008,07,25,13,26,18.40
2008,07,25,13,27,18.20
2008,07,25,13,28,18.00
2008,07,25,13,29,17.90
2008,07,25,13,30,18.10
2008,07,25,13,31,18.10
2008,07,25,13,32,18.00
2008,07,25,13,33,17.90
2008,07,25,13,34,17.90
2008,07,25,13,35,17.90
2008,07,25,13,36,17.70
2008,07,25,13,37,17.80
2008,07,25,13,38,17.80
2008,07,25,13,39,17.80
2008,07,25,13,40,17.80
2008,07,25,13,41,17.80
2008,07,25,13,42,17.90
2008,07,25,13,43,18.10
2008,07,25,13,44,18.30
2008,07,25,13,45,18.40
2008,07,25,13,46,18.40
2008,07,25,13,47,18.50
2008,07,25,13,48,18.50
2008,07,25,13,49,18.60
2008,07,25,13,50,18.60
2008,07,25,13,51,18.70
2008,07,25,13,52,18.70
2008,07,25,13,53,18.60
2008,07,25,13,54,18.60
2008,07,25,13,55,18.60
2008,07,25,13,56,18.50
2008,07,25,13,57,18.40
2008,07,25,13,58,18.30
2008,07,25,13,59,18.30
2008,07,25,14,00,18.30
2008,07,25,14,01,18.30
2008,07,25,14,02,18.20
2008,07,25,14,03,18.20
2008,07,25,14,04,18.30
2008,07,25,14,05,18.30
2008,07,25,14,06,18.30
2008,07,25,14,07,18.50
2008,07,25,14,08,18.60
2008,07,25,14,09,18.80
2008,07,25,14,10,18.90
2008,07,25,14,11,18.70
2008,07,25,14,12,18.50
2008,07,25,14,13,18.40
2008,07,25,14,14,18.40
2008,07,25,14,15,18.40
2008,07,25,14,16,18.40
2008,07,25,14,17,18.40
2008,07,25,14,18,18.40
2008,07,25,14,19,18.40
2008,07,25,14,20,18.40
2008,07,25,14,21,18.50
2008,07,25,14,22,18.60
2008,07,25,14,23,18.70
2008,07,25,14,24,18.70
2008,07,25,14,25,18.70
2008,07,25,14,26,18.70
2008,07,25,14,27,18.80
2008,07,25,14,28,18.70
2008,07,25,14,29,18.50
2008,07,25,14,30,18.40
2008,07,25,14,31,18.20
2008,07,25,14,32,18.20
2008,07,25,14,33,18.20
2008,07,25,14,34,18.20
2008,07,25,14,35,18.30
2008,07,25,14,36,18.40
2008,07,25,14,37,18.40
2008,07,25,14,38,18.40
2008,07,25,14,39,18.50
2008,07,25,14,40,18.60
2008,07,25,14,41,18.60
2008,07,25,14,42,18.70
2008,07,25,14,43,18.80
2008,07,25,14,44,18.80
2008,07,25,14,45,18.80
2008,07,25,14,46,18.90
2008,07,25,14,47,19.00
2008,07,25,14,48,19.10
2008,07,25,14,49,19.30
2008,07,25,14,50,19.40
2008,07,25,14,51,19.50
2008,07,25,14,52,19.60
2008,07,25,14,53,19.70
2008,07,25,14,54,19.90
2008,07,25,14,55,19.90
2008,07,25,14,56,19.90
2008,07,25,14,57,19.90
2008,07,25,14,58,19.90
2008,07,25,14,59,20.00
2008,07,25,15,00,20.20
2008,07,25,15,01,20.20
2008,07,25,15,02,20.30
2008,07,25,15,03,20.20
2008,07,25,15,04,20.20
2008,07,25,15,05,20.20
2008,07,25,15,06,20.10
2008,07,25,15,07,20.00
2008,07,25,15,08,19.90
2008,07,25,15,09,19.80
2008,07,25,15,10,19.80
2008,07,25,15,11,19.70
2008,07,25,15,12,19.60
2008,07,25,15,13,19.40
2008,07,25,15,14,19.40
2008,07,25,15,15,19.30
2008,07,25,15,16,19.30
2008,07,25,15,17,19.40
2008,07,25,15,18,19.40
2008,07,25,15,19,19.50
2008,07,25,15,20,19.50
2008,07,25,15,21,19.50
2008,07,25,15,22,19.50
2008,07,25,15,23,19.50
2008,07,25,15,24,19.50
2008,07,25,15,25,19.50
2008,07,25,15,26,19.60
2008,07,25,15,27,19.60
2008,07,25,15,28,19.60
2008,07,25,15,29,19.60
2008,07,25,15,30,19.50
2008,07,25,15,31,19.30
2008,07,25,15,32,19.30
2008,07,25,15,33,19.30
2008,07,25,15,34,19.20
2008,07,25,15,35,19.20
2008,07,25,15,36,19.20
2008,07,25,15,37,19.30
2008,07,25,15,38,19.40
2008,07,25,15,39,19.60
2008,07,25,15,40,19.70
2008,07,25,15,41,19.90
2008,07,25,15,42,20.10
2008,07,25,15,43,20.20
2008,07,25,15,44,20.40
2008,07,25,15,45,20.60
2008,07,25,15,46,20.70
2008,07,25,15,47,20.70
2008,07,25,15,48,20.90
2008,07,25,15,49,20.80
2008,07,25,15,50,20.70
2008,07,25,15,51,20.70
2008,07,25,15,52,20.60
2008,07,25,15,53,20.50
2008,07,25,15,54,20.30
2008,07,25,15,55,20.30
2008,07,25,15,56,20.30
2008,07,25,15,57,20.40
2008,07,25,15,58,20.50
2008,07,25,15,59,20.50
2008,07,25,16,00,20.50
2008,07,25,16,01,20.40
2008,07,25,16,02,20.40
2008,07,25,16,03,20.20
2008,07,25,16,04,20.20
2008,07,25,16,05,20.10
2008,07,25,16,06,20.10
2008,07,25,16,07,20.10
2008,07,25,16,08,19.90
2008,07,25,16,09,19.90
2008,07,25,16,10,19.90
2008,07,25,16,11,19.90
2008,07,25,16,12,19.90
2008,07,25,16,13,19.90
2008,07,25,16,14,20.00
2008,07,25,16,15,20.10
2008,07,25,16,16,20.10
2008,07,25,16,17,20.20
2008,07,25,16,18,20.20
2008,07,25,16,19,20.10
2008,07,25,16,20,20.00
2008,07,25,16,21,19.90
2008,07,25,16,22,19.90
2008,07,25,16,23,19.90
2008,07,25,16,24,20.00
2008,07,25,16,25,20.20
2008,07,25,16,26,20.30
2008,07,25,16,27,20.50
2008,07,25,16,28,20.70
2008,07,25,16,29,20.90
2008,07,25,16,30,20.90
2008,07,25,16,31,21.00
2008,07,25,16,32,21.00
2008,07,25,16,33,21.00
2008,07,25,16,34,21.00
2008,07,25,16,35,21.10
2008,07,25,16,36,21.20
2008,07,25,16,37,21.30
2008,07,25,16,38,21.40
2008,07,25,16,39,21.50
2008,07,25,16,40,21.40
2008,07,25,16,41,21.50
2008,07,25,16,42,21.60
2008,07,25,16,43,21.70
2008,07,25,16,44,21.80
2008,07,25,16,45,21.70
2008,07,25,16,46,21.70
2008,07,25,16,47,21.70
2008,07,25,16,48,21.70
2008,07,25,16,49,21.70
2008,07,25,16,50,21.70
2008,07,25,16,51,21.60
2008,07,25,16,52,21.60
2008,07,25,16,53,21.60
2008,07,25,16,54,21.70
2008,07,25,16,55,21.80
2008,07,25,16,56,21.90
2008,07,25,16,57,21.90
2008,07,25,16,58,21.90
2008,07,25,16,59,21.80
2008,07,25,17,00,21.80
2008,07,25,17,01,21.80
2008,07,25,17,02,21.80
2008,07,25,17,03,21.80
2008,07,25,17,04,21.80
2008,07,25,17,05,21.90
2008,07,25,17,06,21.90
2008,07,25,17,07,22.00
2008,07,25,17,08,22.20
2008,07,25,17,09,22.20
2008,07,25,17,10,22.30
2008,07,25,17,11,22.40
2008,07,25,17,12,22.30
2008,07,25,17,13,22.30
2008,07,25,17,14,22.30
2008,07,25,17,15,22.20
2008,07,25,17,16,22.20
2008,07,25,17,17,22.30
2008,07,25,17,18,22.30
2008,07,25,17,19,22.40